STARLINK R

Last updated on Wed Apr 23 2025 00:02:06 GMT+0000 (Coordinated Universal Time)

1 63584U 25076R 25112.83334491 -.00855747 23289-3 -21909-2 0 9990 2 63584 43.0019 345.5960 0002095 256.9046 111.1431 15.94358672 2605

Satellite not in orbit